Location: Huntsville
(41.2590°N, 111.7678°W)
Time: 05:00:26
(UTC+00:00)

Tiros 1 - Visible Passes

Search period start: 06 October 2022 00:00
Search period end: 16 October 2022 00:00
Orbit: 629 x 663 km, 48.4° (Epoch: 05 October)

Date Brightness Start Highest point End Pass type
(mag) Time Alt. Az. Time Alt. Az. Time Alt. Az.
06 Oct 7.8 11:05:48 48° SE 11:05:48 48° SE 11:09:13 10° ESE visible
06 Oct 8.7 12:43:30 12° W 12:46:08 18° SW 12:49:20 10° S visible
07 Oct 8.0 11:31:09 36° S 11:31:09 36° S 11:34:27 10° SSE visible
08 Oct 8.8 11:56:37 18° SSW 11:56:37 18° SSW 11:58:44 10° S visible
10 Oct 9.0 02:29:35 10° S 02:31:14 16° SSE 02:31:14 16° SSE visible
11 Oct 8.3 02:53:42 10° SSW 02:56:33 30° S 02:56:33 30° S visible
12 Oct 8.8 01:38:59 10° S 01:42:01 17° SE 01:44:02 13° ESE visible
12 Oct 8.3 03:18:50 10° SW 03:21:43 36° SW 03:21:43 36° SW visible
13 Oct 7.9 02:02:54 10° SSW 02:07:15 36° SE 02:09:04 26° E visible
13 Oct 9.1 03:44:33 10° WSW 03:46:44 26° W 03:46:44 26° W visible
14 Oct 7.1 02:27:56 10° SW 02:32:42 73° SSE 02:33:57 48° ENE visible
14 Oct 9.9 04:10:35 10° W 04:11:36 16° W 04:11:36 16° W visible
15 Oct 8.1 01:12:07 10° SSW 01:16:21 33° SE 01:20:39 10° ENE visible
15 Oct 7.4 02:53:35 10° WSW 02:58:21 65° NNW 02:58:42 62° N visible
